Domov               UVHVVR             MKGP            O straneh              
ZDRAVSTVENO VARSTVO RASTLIN
  MREŽA AGROMET. POSTAJ
 ► PROGNOSTIČNA OBVESTILA
AGROMETEOROLOŠKI PODATKI -
ARSO
OBVLADOVANJE TVEGANJ ZARADI
NEUGODNIH VREMENSKIH RAZMER
  ► NARAVNE NESREČE
  ► SUŠA/MOČA
  ► NAMAKANJE
  ► ŽLED (gozdarstvo)
KARTOGRAFSKI PRIKAZI
SPLETNE POVEZAVE
PROJEKTI IN PUBLIKACIJE

AGROMETEOROLOŠKA MREŽA: VREMENSKE POSTAJE IN FENOLOŠKA OPAZOVANJA

Pregled podatkov za lokacijo Kozana, meteorološka postaja 863701

Pregled senzorjev na lokaciji

ID Ime Zadnja
vrednost
Datum
zadnje
spremembe
Tip
senzorja
4188 Omočenost lista (U) 0 U 19.7.2018 05:30 A730WET
4189 Padavine (mm) 0 mm 19.7.2018 05:30 Rain-O-Matic
4187 Relativna vlaga 2 m (% RH) 77,81 % RH 19.7.2018 05:30 50YA
4186 Temperatura 2 m (°C) 19,97 °C 19.7.2018 05:30 50YA

Pregled podatkov zadnjih 24 ur

Zap.
št.
Datum in čas Kozana
Omočenost
lista
Padavine Relativna
vlaga
2
m
Temperatura
2
m
1 19.7.2018 06:00
2 19.7.2018 05:30
3 19.7.2018 05:00
4 19.7.2018 04:30 0 0 77,8 20
5 19.7.2018 04:00 1 0 78,4 20,2
6 19.7.2018 03:30 3 0 81,3 19,6
7 19.7.2018 03:00 5 0 81,3 20
8 19.7.2018 02:30 2 0 81,3 20,3
9 19.7.2018 02:00 0 0 75,8 21,2
10 19.7.2018 01:30 1 0 76,8 21,3
11 19.7.2018 01:00 0 0 74,3 22,1
12 19.7.2018 00:30 0 0 75,5 22,2
13 19.7.2018 00:00 1 0 77,3 22,1
14 18.7.2018 23:30 1 0 79,3 21,9
15 18.7.2018 23:00 1 0 79,7 22
16 18.7.2018 22:30 1 0 78,9 22,3
17 18.7.2018 22:00 1 0 77,2 22,6
18 18.7.2018 21:30 1 0 75,7 23
19 18.7.2018 21:00 1 0 76,1 23,4
20 18.7.2018 20:30 0 0 71,4 24
21 18.7.2018 20:00 0 0 65,4 24,9
22 18.7.2018 19:30 0 0 61,2 26,5
23 18.7.2018 19:00 0 0 60,9 27,5
24 18.7.2018 18:30 0 0 61 27,9
25 18.7.2018 18:00 0 0 60,4 27,2
26 18.7.2018 17:30 0 0 55,8 27,7
27 18.7.2018 17:00 0 0 53,5 29,6
28 18.7.2018 16:30 0 0 56,9 30,2
29 18.7.2018 16:00 0 0 53,6 30
30 18.7.2018 15:30 0 0 51,4 29,3
31 18.7.2018 15:00 0 0 46,5 30,9
32 18.7.2018 14:30 0 0 48,5 31,4
33 18.7.2018 14:00 0 0 43,3 31,6
34 18.7.2018 13:30 0 0 42,8 31,4
35 18.7.2018 13:00 0 0 46 31,2
36 18.7.2018 12:30 0 0 48,1 30,8
37 18.7.2018 12:00 0 0 46,4 30,2
38 18.7.2018 11:30 0 0 47,4 29,7
39 18.7.2018 11:00 0 0 50,9 29,4
40 18.7.2018 10:30 0 0 53,9 28,4
41 18.7.2018 10:00 0 0 53 28,3
42 18.7.2018 09:30 0 0 50,7 27,9
43 18.7.2018 09:00 0 0 51,9 26,9
44 18.7.2018 08:30 0 0 56,9 25,4
45 18.7.2018 08:00 0 0 60,2 24
46 18.7.2018 07:30 0 0 61,8 23,3
47 18.7.2018 07:00 0 0 64,9 22,4
48 18.7.2018 06:30 0 0 70,2 20,8
© 2011 Ministrstvo za kmetijstvo, gozdarstvo in prehrano. Vse pravice pridržane.